TimePDT,TemperatureF,Dew PointF,Humidity,Sea Level PressureIn,VisibilityMPH,Wind Direction,Wind SpeedMPH,Gust SpeedMPH,PrecipitationIn,Events,Conditions,WindDirDegrees,DateUTC
12:53 AM,30.0,23.0,75,30.15,10.0,South,10.4,-,N/A,,Clear,170,2012-10-28 07:53:00
1:53 AM,30.0,23.0,75,30.14,10.0,South,12.7,-,N/A,,Clear,180,2012-10-28 08:53:00
2:53 AM,30.0,21.9,72,30.14,10.0,SSE,12.7,-,N/A,,Clear,160,2012-10-28 09:53:00
3:53 AM,28.9,21.9,75,30.14,10.0,South,11.5,-,N/A,,Clear,180,2012-10-28 10:53:00
4:53 AM,28.0,21.0,75,30.17,10.0,South,12.7,-,N/A,,Clear,180,2012-10-28 11:53:00
5:53 AM,26.1,21.0,81,30.20,10.0,South,9.2,-,N/A,,Clear,170,2012-10-28 12:53:00
6:53 AM,28.0,21.9,78,30.24,10.0,South,12.7,-,N/A,,Clear,170,2012-10-28 13:53:00
7:53 AM,28.9,21.9,75,30.26,10.0,South,12.7,-,N/A,,Clear,170,2012-10-28 14:53:00
8:53 AM,39.0,25.0,57,30.22,10.0,South,11.5,-,N/A,,Clear,170,2012-10-28 15:53:00
9:53 AM,46.4,26.6,46,30.24,10.0,South,9.2,-,N/A,,Clear,190,2012-10-28 16:53:00
10:53 AM,55.0,27.0,34,30.15,10.0,Calm,Calm,-,N/A,,Clear,0,2012-10-28 17:53:00
11:53 AM,61.0,30.0,31,30.11,10.0,Calm,Calm,-,N/A,,Clear,0,2012-10-28 18:53:00
12:53 PM,63.0,30.0,29,30.07,10.0,Variable,4.6,-,N/A,,Clear,0,2012-10-28 19:53:00
1:53 PM,64.0,30.0,28,30.05,10.0,Calm,Calm,-,N/A,,Clear,0,2012-10-28 20:53:00
2:53 PM,63.0,28.9,28,30.03,10.0,Variable,3.5,-,N/A,,Clear,0,2012-10-28 21:53:00
3:53 PM,63.0,28.0,27,30.04,10.0,WSW,8.1,-,N/A,,Clear,250,2012-10-28 22:53:00
4:53 PM,61.0,27.0,27,30.05,10.0,WSW,6.9,-,N/A,,Clear,250,2012-10-28 23:53:00
5:53 PM,57.0,25.0,29,30.09,10.0,SW,9.2,-,N/A,,Clear,230,2012-10-29 00:53:00
6:53 PM,48.0,28.0,46,30.14,10.0,SSE,9.2,-,N/A,,Clear,150,2012-10-29 01:53:00
7:53 PM,43.0,28.0,56,30.16,10.0,South,9.2,-,N/A,,Clear,170,2012-10-29 02:53:00
8:53 PM,39.9,27.0,60,30.14,10.0,Calm,Calm,-,N/A,,Clear,0,2012-10-29 03:53:00
9:53 PM,39.0,26.1,60,30.14,10.0,SSE,8.1,-,N/A,,Clear,150,2012-10-29 04:53:00
10:53 PM,37.0,25.0,62,30.11,10.0,South,11.5,100.1,N/A,,Clear,170,2012-10-29 05:53:00
11:53 PM,36.0,25.0,64,30.09,10.0,South,11.5,-,N/A,,Clear,170,2012-10-29 06:53:00